Weather Roundup
Issued by NWS

Home | Current Version | Previous Version | Graphics & Text | Print | Product List | Glossary Off
Versions: 1 2 3 4 5 6 7 8 9 10 11 12 13 14 15 16 17 18 19 20 21 22 23 24 25 26 27 28 29 30 31 32 33 34 35 36 37 38 39 40 41 42 43 44 45 46 47 48 49 50

000
NZUS93 KARX 170910
HRRWXR

CURRENT HOURLY OBSERVATIONS ACROSS
MUCH OF THE UPPER MISSISSIPPI VALLEY
NATIONAL WEATHER SERVICE LA CROSSE WI
400 AM CDT WED SEP 17 2014


...SOUTHEAST MINNESOTA...


CITY           SKY/WX    TMP DP  RH WIND       PRES   REMARKS
ROCHESTER      CLOUDY    49  45  86 S6        30.00F
ROCHESTER/MAYO CLOUDY    53  44  72 S8        30.00F
WINONA         CLOUDY    48  48 100 CALM      30.01F
AUSTIN         CLOUDY    48  46  93 CALM      30.00F
ALBERT LEA     CLOUDY    55  46  71 S6        29.99F
DODGE CENTER   CLOUDY    52  46  82 S5        29.99F
PRESTON        CLOUDY    48  47  97 SW5       30.02S
OWATONNA       PTCLDY    54  46  76 S3        29.98F
FARIBAULT      CLOUDY    57  46  67 S3        29.98F
$$

...ELSEWHERE IN MINNESOTA...


CITY           SKY/WX    TMP DP  RH WIND       PRES   REMARKS
MINNEAPOLIS    CLOUDY    56  47  71 VRB3      29.96F
INTNL FALLS    CLOUDY    52  45  77 NW8       29.91R
DULUTH         PTCLDY    48  41  76 SW5       29.93F
RED WING       CLOUDY    55  46  71 CALM      29.97F
REDWOOD FALLS  MOCLDY    57  51  80 S3        29.93F
MANKATO        PTCLDY    54  45  71 S6        29.96F
WORTHINGTON    MOCLDY    52  48  87 S6        29.96F
FAIRMONT       CLOUDY    52  45  76 S6        29.97F
$$

...SOUTHWEST WISCONSIN...


CITY           SKY/WX    TMP DP  RH WIND       PRES   REMARKS
LA CROSSE      CLOUDY    49  47  93 SE6       30.02S FOG
PRAIRIE DU CHI CLEAR     44  43  95 E5        30.04S
BOSCOBEL       FOG       47  45  93 CALM      30.04F VSB 1/4
LONE ROCK      HAZE      45  40  82 CALM      30.04F VSB 1/2
PLATTEVILLE    CLEAR     47  43  86 CALM      30.04S
FORT MC COY    FOG       35  35 100 CALM      30.03S VSB 1
CAMP DOUGLAS   CLEAR     42  42 100 E3        30.02S
VIROQUA        FAIR      48  43  85 S3        30.02F
WIS DELLS      CLEAR     44  42  92 CALM      30.02F
$$

...ELSEWHERE IN WISCONSIN...


CITY           SKY/WX    TMP DP  RH WIND       PRES   REMARKS
MILWAUKEE      CLEAR     50  45  83 S3        30.04F
MADISON        MOCLDY    40  39  97 CALM      30.04S FOG
GREEN BAY      CLEAR     44  43  96 CALM      30.01F
EAU CLAIRE     MOCLDY    42  41  96 CALM      29.98F
BLACK RVR FLS  FOG       34  34 100 CALM      30.01S VSB 1
MEDFORD        CLEAR     40  39  97 S3        30.00S
WAUSAU         CLEAR     42  41  96 E5        30.00F
WIS RAPIDS     CLEAR     40  39  97 CALM      30.03S FOG
MARSHFIELD     CLEAR     43  41  93 CALM      30.00F
RICE LAKE      FOG       40  40  98 CALM      29.99F VSB 1/4
$$

...NORTHEAST IOWA...


CITY           SKY/WX    TMP DP  RH WIND       PRES   REMARKS
WATERLOO       CLOUDY    48  46  93 NE5       30.01S
DUBUQUE        CLEAR     44  41  89 S3        30.03F
DECORAH        MOCLDY    45  43  93 CALM      30.02S
MASON CITY     CLOUDY    48  46  93 S3        30.01F
CHARLES CITY   CLEAR     46  45  93 SE6       30.02F
OELWEIN        CLOUDY    48  45  87 CALM      30.03S
$$

...ELSEWHERE IN IOWA...


CITY           SKY/WX    TMP DP  RH WIND       PRES   REMARKS
DES MOINES     CLOUDY    57  49  74 SE5       30.00F
IOWA CITY      PTCLDY    49  47  93 CALM      30.04F
FORT DODGE     PTCLDY    52  46  82 S3        29.99F
MARSHALLTOWN   PTCLDY    51  48  89 SE5       30.00F
CEDAR RAPIDS   PTCLDY    46  46 100 SE3       30.02F
$$

...NORTHERN ILLINOIS...


CITY           SKY/WX    TMP DP  RH WIND       PRES   REMARKS
CHICAGO-OHARE  CLEAR     52  46  80 CALM      30.05F
DUPAGE         CLEAR     43  40  89 CALM      30.06S
CHICAGO-MIDWAY PTCLDY    52  47  83 CALM      30.06S
MOLINE         CLEAR     46  43  89 CALM      30.04F
ROCKFORD       PTCLDY    44  41  89 CALM      30.07F
STERLING       CLEAR     43  39  87 SE3       30.05F
PEORIA         CLEAR     50  46  86 CALM      30.06F
$$

NOTE: "FAIR" INDICATES FEW OR NO CLOUDS BELOW 12,000 FEET WITH NO
SIGNIFICANT WEATHER AND/OR OBSTRUCTIONS TO VISIBILITY. WIND
SPEEDS ARE IN MILES-PER-HOUR.



USA.gov is the U.S. government's official web portal to all federal, state and local government web resources and services.